Regional Weather Roundup
Issued by NWS

Home | Current Version | Previous Version | Graphics & Text | Print | Product List | Glossary On
Versions: 1 2 3 4 5 6 7 8 9 10 11 12 13 14 15 16 17 18 19 20 21 22 23 24 25 26 27 28 29 30 31 32 33 34 35 36 37 38 39 40 41 42 43 44 45 46 47 48 49 50
000
ASUS43 KBIS 210902
RWRND

NORTH DAKOTA REGIONAL WEATHER ROUNDUP
NATIONAL WEATHER SERVICE BISMARCK ND
300 AM CST TUE FEB 21 2017

NOTE: "FAIR" INDICATES FEW OR NO CLOUDS BELOW 12,000 FEET WITH NO
SIGNIFICANT WEATHER AND/OR OBSTRUCTIONS TO VISIBILITY.


NDZ001>003-009>011-017-211000-
NORTHWEST NORTH DAKOTA

CITY           SKY/WX    TMP DP  RH WIND       PRES   REMARKS
WILLISTON      FAIR      36  29  75 SW3       29.64R
MINOT          CLOUDY    36  31  82 N7        29.66S
MINOT AFB      PTCLDY    35  31  87 SE5       29.65F
$$

NDZ018>021-031>035-040>046-211000-
SOUTHWEST NORTH DAKOTA

CITY           SKY/WX    TMP DP  RH WIND       PRES   REMARKS
BISMARCK       FAIR      37  31  78 E6        29.69F
DICKINSON      FAIR      40  27  59 SW15      29.63S
GARRISON         N/A     34  29  82 E8        29.65S
HETTINGER ARPT PTCLDY    39  28  64 NW9       29.71R
$$

NDZ004>008-012>016-024-026-027-054-211000-
NORTHEAST NORTH DAKOTA

CITY           SKY/WX    TMP DP  RH WIND       PRES   REMARKS
GRAND FORKS    CLOUDY    30  26  85 SW5       29.74R
GRND FRKS AFB  CLOUDY    32  31  99 SW6       29.73F
DEVILS LAKE    CLOUDY    32  31  96 E5        29.70F
$$

NDZ022-023-025-028>030-036>039-047>053-211000-
SOUTHEAST NORTH DAKOTA

CITY           SKY/WX    TMP DP  RH WIND       PRES   REMARKS
FARGO          CLEAR     33  30  88 S5        29.77S
JAMESTOWN      MOCLDY    31  30  96 S6        29.72F
$$





USA.gov is the U.S. government's official web portal to all federal, state and local government web resources and services.